TimeCST,TemperatureF,Dew PointF,Humidity,Sea Level PressureIn,VisibilityMPH,Wind Direction,Wind SpeedMPH,Gust SpeedMPH,PrecipitationIn,Events,Conditions,WindDirDegrees,DateUTC
12:15 AM,33.8,30.2,87,30.10,10.0,East,3.5,-,N/A,,Overcast,90,2012-12-09 06:15:00
12:35 AM,33.8,30.2,87,30.09,10.0,East,3.5,-,N/A,,Overcast,100,2012-12-09 06:35:00
1:15 AM,33.8,30.2,87,30.09,10.0,East,8.1,-,N/A,,Overcast,100,2012-12-09 07:15:00
1:35 AM,33.8,30.2,87,30.09,10.0,East,5.8,-,N/A,,Overcast,100,2012-12-09 07:35:00
1:55 AM,33.8,30.2,87,30.09,10.0,ESE,6.9,-,N/A,,Overcast,110,2012-12-09 07:55:00
2:15 AM,33.8,32.0,93,30.09,10.0,East,5.8,-,N/A,,Overcast,100,2012-12-09 08:15:00
2:35 AM,33.8,32.0,93,30.09,10.0,Calm,Calm,-,N/A,,Overcast,0,2012-12-09 08:35:00
2:55 AM,33.8,32.0,93,30.08,10.0,SE,8.1,-,N/A,,Overcast,130,2012-12-09 08:55:00
3:15 AM,33.8,32.0,93,30.08,10.0,ESE,9.2,-,N/A,,Overcast,120,2012-12-09 09:15:00
3:35 AM,33.8,32.0,93,30.06,10.0,ESE,6.9,-,N/A,,Overcast,110,2012-12-09 09:35:00
3:55 AM,33.8,32.0,93,30.06,10.0,East,3.5,-,N/A,,Overcast,90,2012-12-09 09:55:00
4:15 AM,33.8,32.0,93,30.06,10.0,ESE,6.9,-,N/A,,Overcast,120,2012-12-09 10:15:00
4:35 AM,33.8,32.0,93,30.05,10.0,East,5.8,-,N/A,,Overcast,100,2012-12-09 10:35:00
4:55 AM,33.8,32.0,93,30.02,10.0,ESE,10.4,16.1,N/A,,Overcast,110,2012-12-09 10:55:00
5:15 AM,35.6,32.0,87,30.03,10.0,East,8.1,-,N/A,,Overcast,100,2012-12-09 11:15:00
5:55 AM,35.6,32.0,87,30.01,10.0,ESE,10.4,-,N/A,,Overcast,110,2012-12-09 11:55:00
6:15 AM,35.6,32.0,87,30.00,10.0,ESE,8.1,-,N/A,,Overcast,120,2012-12-09 12:15:00
6:35 AM,35.6,32.0,87,30.00,10.0,ESE,8.1,16.1,N/A,,Overcast,110,2012-12-09 12:35:00
6:55 AM,35.6,32.0,87,29.99,10.0,ESE,9.2,17.3,N/A,,Overcast,110,2012-12-09 12:55:00
7:15 AM,35.6,32.0,87,29.98,10.0,East,5.8,-,N/A,,Overcast,100,2012-12-09 13:15:00
7:35 AM,35.6,32.0,87,29.98,10.0,East,5.8,-,N/A,,Overcast,90,2012-12-09 13:35:00
7:55 AM,35.6,32.0,87,29.98,10.0,East,9.2,-,N/A,,Light Drizzle,100,2012-12-09 13:55:00
8:35 AM,35.6,32.0,87,29.95,10.0,ESE,8.1,18.4,N/A,,Light Drizzle,110,2012-12-09 14:35:00
8:55 AM,35.6,33.8,93,29.94,10.0,East,9.2,-,N/A,Rain,Light Rain,100,2012-12-09 14:55:00
9:15 AM,35.6,33.8,93,29.94,7.0,ESE,6.9,-,N/A,,Drizzle,110,2012-12-09 15:15:00
9:35 AM,35.6,33.8,93,29.92,5.0,East,5.8,-,N/A,Rain,Light Rain,100,2012-12-09 15:35:00
9:55 AM,35.6,33.8,93,29.91,5.0,ESE,8.1,-,N/A,Rain,Light Rain,110,2012-12-09 15:55:00
10:15 AM,35.6,35.6,100,29.90,5.0,East,4.6,-,N/A,Rain,Rain,100,2012-12-09 16:15:00
10:35 AM,35.6,35.6,100,29.88,5.0,East,6.9,-,N/A,Rain,Light Rain,100,2012-12-09 16:35:00
10:55 AM,37.4,35.6,93,29.85,5.0,ESE,8.1,-,N/A,Rain,Light Rain,120,2012-12-09 16:55:00
11:15 AM,37.4,35.6,93,29.85,7.0,ESE,9.2,17.3,N/A,Rain,Rain,120,2012-12-09 17:15:00
11:35 AM,37.4,35.6,93,29.82,7.0,ESE,6.9,-,N/A,Rain,Light Rain,120,2012-12-09 17:35:00
11:55 AM,37.4,35.6,93,29.82,10.0,SE,8.1,16.1,N/A,,Overcast,130,2012-12-09 17:55:00
12:15 PM,37.4,35.6,93,29.80,3.0,SE,11.5,20.7,N/A,,Overcast,130,2012-12-09 18:15:00
12:35 PM,37.4,35.6,93,29.79,4.0,SE,9.2,-,N/A,Rain,Light Rain,130,2012-12-09 18:35:00
12:55 PM,37.4,37.4,100,29.78,4.0,SE,10.4,16.1,N/A,,Overcast,140,2012-12-09 18:55:00
1:15 PM,37.4,37.4,100,29.77,2.5,SE,9.2,-,N/A,,Overcast,140,2012-12-09 19:15:00
1:35 PM,37.4,37.4,100,29.75,4.0,ESE,9.2,-,N/A,,Overcast,110,2012-12-09 19:35:00
1:55 PM,37.4,37.4,100,29.73,2.5,ESE,9.2,-,N/A,,Overcast,110,2012-12-09 19:55:00
2:35 PM,39.2,37.4,93,29.75,4.0,Calm,Calm,-,N/A,,Overcast,0,2012-12-09 20:35:00
2:55 PM,39.2,37.4,93,29.75,1.5,Calm,Calm,-,N/A,Rain,Light Rain,0,2012-12-09 20:55:00
3:15 PM,39.2,37.4,93,29.75,1.5,Calm,Calm,-,N/A,,Overcast,0,2012-12-09 21:15:00
3:35 PM,41.0,39.2,93,29.75,1.2,Calm,Calm,-,N/A,,Overcast,0,2012-12-09 21:35:00
3:55 PM,41.0,39.2,93,29.74,1.2,Calm,Calm,-,N/A,Rain,Light Rain,0,2012-12-09 21:55:00
4:15 PM,41.0,39.2,93,29.75,3.0,Calm,Calm,-,N/A,,Overcast,0,2012-12-09 22:15:00
4:35 PM,41.0,41.0,100,29.75,3.0,Calm,Calm,-,N/A,,Overcast,0,2012-12-09 22:35:00
4:55 PM,41.0,41.0,100,29.73,3.0,Calm,Calm,-,N/A,,Overcast,0,2012-12-09 22:55:00
5:15 PM,41.0,41.0,100,29.72,4.0,Calm,Calm,-,N/A,,Overcast,0,2012-12-09 23:15:00
5:55 PM,41.0,41.0,100,29.72,5.0,Calm,Calm,-,N/A,,Overcast,0,2012-12-09 23:55:00
6:15 PM,42.8,41.0,93,29.72,5.0,SSW,5.8,-,N/A,,Overcast,210,2012-12-10 00:15:00
6:35 PM,42.8,42.8,100,29.72,7.0,WSW,5.8,-,N/A,,Overcast,240,2012-12-10 00:35:00
6:55 PM,42.8,42.8,100,29.72,7.0,West,6.9,-,N/A,,Overcast,260,2012-12-10 00:55:00
7:15 PM,42.8,41.0,93,29.71,7.0,West,3.5,-,N/A,,Overcast,270,2012-12-10 01:15:00
7:35 PM,42.8,41.0,93,29.71,7.0,West,8.1,-,N/A,,Overcast,260,2012-12-10 01:35:00
7:55 PM,42.8,41.0,93,29.71,7.0,WSW,5.8,-,N/A,,Overcast,250,2012-12-10 01:55:00
8:35 PM,41.0,41.0,100,29.70,10.0,West,6.9,-,N/A,,Overcast,260,2012-12-10 02:35:00
8:55 PM,41.0,39.2,93,29.71,10.0,WSW,9.2,-,N/A,,Overcast,250,2012-12-10 02:55:00
9:15 PM,41.0,39.2,93,29.71,10.0,West,10.4,17.3,N/A,,Overcast,260,2012-12-10 03:15:00
9:35 PM,41.0,37.4,87,29.71,10.0,WSW,9.2,-,N/A,,Overcast,250,2012-12-10 03:35:00
10:15 PM,41.0,37.4,87,29.70,10.0,West,9.2,-,N/A,,Overcast,260,2012-12-10 04:15:00
10:35 PM,41.0,37.4,87,29.71,10.0,WSW,4.6,-,N/A,,Overcast,250,2012-12-10 04:35:00
10:55 PM,41.0,37.4,87,29.71,10.0,WSW,9.2,-,N/A,,Overcast,250,2012-12-10 04:55:00
11:15 PM,39.2,37.4,93,29.70,10.0,WSW,11.5,20.7,N/A,,Overcast,250,2012-12-10 05:15:00
11:35 PM,37.4,35.6,93,29.71,10.0,West,12.7,19.6,N/A,,Overcast,260,2012-12-10 05:35:00
11:55 PM,37.4,35.6,93,29.71,10.0,WSW,11.5,16.1,N/A,,Overcast,250,2012-12-10 05:55:00